�������l�o���
Date,Time,MP-1(��Sv/h),MP-2(��Sv/h),MP-3(��Sv/h),MP-4(��Sv/h),MP-5(��Sv/h),MP-6(��Sv/h),MP-7(��Sv/h),MP-8(��Sv/h),����,����(m/s),���J
2020/11/10,00:00,0.669,0.969,0.613,1.201,0.863,0.387,0.681,0.638,���k��,7.8,��
2020/11/10,00:10,0.669,0.968,0.613,1.203,0.862,0.386,0.680,0.638,�k��,6.3,��
2020/11/10,00:20,0.671,0.969,0.614,1.204,0.860,0.385,0.679,0.638,�k��,6.1,��
2020/11/10,00:30,0.672,0.971,0.613,1.203,0.861,0.386,0.679,0.638,�k��,6.5,��
2020/11/10,00:40,0.671,0.969,0.614,1.203,0.861,0.385,0.678,0.639,�k��,6.6,��
2020/11/10,00:50,0.670,0.971,0.615,1.203,0.863,0.387,0.678,0.637,���k��,6.6,��
2020/11/10,01:00,0.671,0.971,0.614,1.204,0.860,0.386,0.678,0.637,�k��,6.6,��
2020/11/10,01:10,0.670,0.971,0.615,1.203,0.861,0.386,0.678,0.636,�k��,5.5,��
2020/11/10,01:20,0.670,0.970,0.612,1.202,0.862,0.387,0.679,0.636,�k��,5.2,��
2020/11/10,01:30,0.671,0.971,0.615,1.203,0.862,0.385,0.679,0.636,�k��,6.4,��
2020/11/10,01:40,0.670,0.969,0.614,1.203,0.863,0.386,0.679,0.638,�k��,6.1,��
2020/11/10,01:50,0.669,0.970,0.614,1.203,0.859,0.387,0.678,0.638,�k��,4.9,��
2020/11/10,02:00,0.670,0.970,0.614,1.201,0.861,0.386,0.678,0.636,�k��,4.7,��
2020/11/10,02:10,0.669,0.970,0.615,1.203,0.862,0.386,0.679,0.637,�k��,4.2,��
2020/11/10,02:20,0.670,0.970,0.613,1.203,0.861,0.385,0.678,0.638,�k��,4.5,��
2020/11/10,02:30,0.670,0.971,0.614,1.204,0.862,0.385,0.678,0.637,�k��,5.7,��
2020/11/10,02:40,0.669,0.970,0.614,1.203,0.860,0.386,0.678,0.638,�k��,7.4,��
2020/11/10,02:50,0.669,0.970,0.614,1.206,0.860,0.387,0.678,0.636,���k��,6.6,��
2020/11/10,03:00,0.670,0.970,0.615,1.204,0.862,0.385,0.680,0.636,�k��,7.3,��
2020/11/10,03:10,0.670,0.969,0.614,1.206,0.862,0.385,0.677,0.637,�k��,7.0,��
2020/11/10,03:20,0.670,0.971,0.613,1.202,0.861,0.386,0.678,0.638,�k��,7.2,��
2020/11/10,03:30,0.669,0.971,0.614,1.202,0.861,0.384,0.677,0.638,���k��,7.6,��
2020/11/10,03:40,0.670,0.969,0.614,1.201,0.862,0.387,0.677,0.637,�k��,5.7,��
2020/11/10,03:50,0.672,0.970,0.612,1.202,0.861,0.386,0.679,0.637,�k��,6.3,��
2020/11/10,04:00,0.671,0.972,0.613,1.203,0.862,0.386,0.678,0.638,���k��,6.5,��
2020/11/10,04:10,0.669,0.971,0.614,1.204,0.862,0.385,0.679,0.637,���k��,4.6,��
2020/11/10,04:20,0.670,0.971,0.614,1.203,0.863,0.385,0.677,0.636,�k��,3.5,��
2020/11/10,04:30,0.670,0.970,0.615,1.205,0.861,0.384,0.678,0.637,�k��,3.3,��
2020/11/10,04:40,0.670,0.972,0.616,1.204,0.861,0.386,0.677,0.637,���k��,5.4,��
2020/11/10,04:50,0.670,0.972,0.614,1.202,0.862,0.386,0.678,0.636,�k��,7.0,��
2020/11/10,05:00,0.671,0.970,0.613,1.204,0.862,0.385,0.677,0.638,�k��,7.0,��
2020/11/10,05:10,0.669,0.971,0.615,1.206,0.861,0.385,0.680,0.637,���k��,7.8,��
2020/11/10,05:20,0.671,0.973,0.613,1.203,0.862,0.386,0.678,0.640,���k��,7.7,��
2020/11/10,05:30,0.670,0.969,0.613,1.202,0.860,0.386,0.677,0.638,���k��,6.6,��
2020/11/10,05:40,0.669,0.969,0.615,1.203,0.862,0.386,0.677,0.636,���k��,6.2,��
2020/11/10,05:50,0.670,0.971,0.615,1.202,0.860,0.387,0.676,0.637,���k��,9.0,��
2020/11/10,06:00,0.669,0.969,0.615,1.205,0.861,0.385,0.679,0.636,�k��,8.3,��
2020/11/10,06:10,0.671,0.972,0.614,1.203,0.862,0.386,0.677,0.637,�k��,7.8,��
2020/11/10,06:20,0.671,0.971,0.614,1.203,0.861,0.385,0.678,0.637,���k��,6.7,��
2020/11/10,06:30,0.671,0.970,0.613,1.205,0.861,0.386,0.677,0.637,���k��,6.6,��
2020/11/10,06:40,0.670,0.970,0.613,1.205,0.860,0.384,0.679,0.637,���k��,7.9,��
2020/11/10,06:50,0.670,0.968,0.612,1.205,0.861,0.386,0.676,0.637,���k��,8.6,��
2020/11/10,07:00,0.670,0.970,0.613,1.206,0.864,0.385,0.677,0.637,�k��,10.0,��
2020/11/10,07:10,0.669,0.968,0.614,1.202,0.862,0.386,0.677,0.637,���k��,10.2,��
2020/11/10,07:20,0.670,0.971,0.614,1.204,0.863,0.385,0.676,0.637,�k��,8.1,��
2020/11/10,07:30,0.671,0.969,0.613,1.203,0.864,0.385,0.676,0.638,�k��,6.2,��
2020/11/10,07:40,0.669,0.970,0.614,1.204,0.862,0.384,0.677,0.636,�k��,5.5,��
2020/11/10,07:50,0.670,0.967,0.612,1.204,0.862,0.386,0.675,0.637,�k��,6.5,��
2020/11/10,08:00,0.671,0.969,0.612,1.202,0.864,0.386,0.676,0.636,�k��,6.6,��
2020/11/10,08:10,0.670,0.969,0.614,1.204,0.862,0.385,0.677,0.638,�k��,8.4,��
2020/11/10,08:20,0.670,0.967,0.614,1.203,0.862,0.385,0.675,0.638,�k��,8.2,��
2020/11/10,08:30,0.670,0.966,0.611,1.204,0.862,0.385,0.675,0.638,�k�k��,7.6,��
2020/11/10,08:40,0.669,0.967,0.613,1.204,0.861,0.385,0.674,0.637,�k�k��,8.4,��
2020/11/10,08:50,0.671,0.968,0.613,1.203,0.860,0.386,0.676,0.638,�k��,9.5,��
2020/11/10,09:00,0.670,0.966,0.614,1.205,0.859,0.386,0.676,0.638,�k�k��,8.3,��
2020/11/10,09:10,0.671,0.966,0.613,1.204,0.863,0.386,0.677,0.639,�k�k��,6.7,��
2020/11/10,09:20,0.671,0.966,0.612,1.204,0.862,0.386,0.675,0.638,�k�k��,7.5,��
2020/11/10,09:30,0.673,0.969,0.613,1.202,0.862,0.385,0.677,0.641,�k��,6.5,��
2020/11/10,09:40,0.670,0.968,0.615,1.203,0.861,0.385,0.675,0.639,�k�k��,7.8,��
2020/11/10,09:50,0.671,0.968,0.614,1.204,0.862,0.385,0.676,0.639,�k�k��,6.3,��
2020/11/10,10:00,0.670,0.967,0.614,1.204,0.863,0.386,0.675,0.639,�k�k��,6.5,��
2020/11/10,10:10,0.673,0.968,0.612,1.207,0.863,0.386,0.676,0.641,�k��,6.6,��
2020/11/10,10:20,0.673,0.971,0.615,1.203,0.862,0.384,0.676,0.639,�k��,7.9,��
2020/11/10,10:30,0.672,0.968,0.614,1.202,0.862,0.386,0.675,0.639,�k��,10.9,��
2020/11/10,10:40,0.672,0.966,0.617,1.204,0.863,0.386,0.674,0.638,�k��,9.0,��
2020/11/10,10:50,0.670,0.968,0.614,1.204,0.864,0.385,0.676,0.638,�k��,7.7,��
2020/11/10,11:00,0.673,0.972,0.613,1.204,0.866,0.385,0.674,0.637,�k��,6.7,��
2020/11/10,11:10,0.671,0.971,0.613,1.204,0.863,0.386,0.677,0.636,�k��,5.6,��
2020/11/10,11:20,0.672,0.970,0.613,1.206,0.863,0.387,0.675,0.636,�k��,6.2,��
2020/11/10,11:30,0.671,0.971,0.614,1.204,0.864,0.386,0.676,0.636,�k��,4.4,��
2020/11/10,11:40,0.670,0.972,0.613,1.204,0.862,0.386,0.675,0.637,�k��,6.1,��
2020/11/10,11:50,0.670,0.973,0.613,1.206,0.863,0.387,0.676,0.637,�k��,4.9,��
2020/11/10,12:00,0.670,0.971,0.614,1.206,0.862,0.386,0.676,0.638,�k��,4.4,��
2020/11/10,12:10,0.672,0.972,0.614,1.205,0.860,0.386,0.675,0.636,�k�k��,6.0,�L
2020/11/10,12:20,0.672,0.972,0.614,1.206,0.860,0.385,0.674,0.638,�k,5.2,��
2020/11/10,12:30,0.671,0.972,0.613,1.205,0.861,0.386,0.676,0.639,�k,5.5,�L
2020/11/10,12:40,0.673,0.968,0.614,1.206,0.864,0.386,0.676,0.635,�k,3.8,��
2020/11/10,12:50,0.671,0.969,0.616,1.207,0.862,0.387,0.675,0.639,�k�k��,3.5,��
2020/11/10,13:00,0.672,0.968,0.614,1.206,0.862,0.387,0.676,0.637,�k�k��,3.6,��
2020/11/10,13:10,0.673,0.970,0.614,1.206,0.861,0.385,0.676,0.638,�k�k��,5.0,��
2020/11/10,13:20,0.672,0.967,0.615,1.204,0.862,0.386,0.678,0.634,�k�k��,4.1,��
2020/11/10,13:30,0.673,0.972,0.615,1.205,0.864,0.386,0.675,0.635,�k�k��,4.3,��
2020/11/10,13:40,0.673,0.973,0.614,1.206,0.862,0.387,0.677,0.635,�k,4.2,��
2020/11/10,13:50,0.674,0.972,0.615,1.206,0.864,0.386,0.677,0.635,��,5.4,��
2020/11/10,14:00,0.672,0.970,0.615,1.205,0.863,0.386,0.675,0.634,���쐼,7.5,��
2020/11/10,14:10,0.672,0.970,0.614,1.206,0.861,0.386,0.677,0.635,��,6.9,�L
2020/11/10,14:20,0.671,0.967,0.613,1.206,0.862,0.385,0.677,0.634,�k��,3.4,��
2020/11/10,14:30,0.672,0.969,0.616,1.209,0.861,0.387,0.677,0.635,�k,3.9,��
2020/11/10,14:40,0.673,0.970,0.614,1.206,0.861,0.386,0.675,0.633,�k�k��,3.0,��
2020/11/10,14:50,0.673,0.969,0.616,1.206,0.863,0.386,0.677,0.635,�k�k��,3.9,��
2020/11/10,15:00,0.672,0.971,0.615,1.206,0.862,0.386,0.676,0.636,�k,4.3,��
2020/11/10,15:10,0.676,0.972,0.615,1.207,0.861,0.387,0.677,0.635,�k,2.8,��
2020/11/10,15:20,0.672,0.975,0.616,1.206,0.861,0.386,0.676,0.636,�k,3.6,��
2020/11/10,15:30,0.673,0.973,0.613,1.205,0.862,0.385,0.677,0.637,�k,3.6,��
2020/11/10,15:40,0.674,0.973,0.614,1.204,0.862,0.386,0.676,0.638,�k,4.1,��
2020/11/10,15:50,0.673,0.976,0.615,1.207,0.863,0.386,0.678,0.639,�k,4.3,��
2020/11/10,16:00,0.672,0.975,0.616,1.205,0.862,0.387,0.677,0.637,�k,4.6,�L
2020/11/10,16:10,0.672,0.973,0.614,1.207,0.862,0.387,0.676,0.638,�k�k��,4.0,��
2020/11/10,16:20,0.674,0.976,0.616,1.206,0.860,0.386,0.677,0.638,�k�k��,4.9,�L
2020/11/10,16:30,0.672,0.974,0.615,1.204,0.860,0.387,0.675,0.637,�k��,6.1,�L
2020/11/10,16:40,0.671,0.976,0.616,1.205,0.862,0.385,0.676,0.637,�k��,5.0,�L
2020/11/10,16:50,0.674,0.975,0.614,1.207,0.864,0.385,0.677,0.637,�k�k��,5.9,��
2020/11/10,17:00,0.672,0.975,0.615,1.206,0.865,0.386,0.676,0.637,�k��,4.5,��
2020/11/10,17:10,0.672,0.975,0.614,1.207,0.865,0.386,0.675,0.637,�k��,3.7,��
2020/11/10,17:20,0.671,0.975,0.614,1.204,0.864,0.388,0.678,0.635,�k��,3.4,��
2020/11/10,17:30,0.670,0.974,0.614,1.204,0.863,0.385,0.678,0.636,���k��,3.2,��
2020/11/10,17:40,0.673,0.972,0.615,1.206,0.863,0.384,0.677,0.636,��,1.9,��
2020/11/10,17:50,0.671,0.974,0.614,1.205,0.866,0.385,0.677,0.636,���k��,1.7,��
2020/11/10,18:00,0.669,0.974,0.614,1.207,0.863,0.384,0.676,0.635,���k��,1.7,��
2020/11/10,18:10,0.670,0.974,0.614,1.206,0.863,0.384,0.677,0.635,���k��,2.3,��
2020/11/10,18:20,0.670,0.973,0.613,1.206,0.865,0.384,0.676,0.636,��,2.2,��
2020/11/10,18:30,0.670,0.973,0.614,1.206,0.863,0.386,0.677,0.636,���쐼,0.9,��
2020/11/10,18:40,0.670,0.971,0.615,1.206,0.863,0.386,0.676,0.635,-,CALM,��
2020/11/10,18:50,0.670,0.970,0.611,1.205,0.863,0.385,0.678,0.636,�쐼,0.8,��
2020/11/10,19:00,0.671,0.973,0.612,1.204,0.863,0.384,0.677,0.637,��,0.6,��
2020/11/10,19:10,0.671,0.973,0.614,1.205,0.866,0.385,0.678,0.635,�k�k��,0.9,��
2020/11/10,19:20,0.672,0.972,0.614,1.205,0.864,0.386,0.676,0.637,���k��,1.5,��
2020/11/10,19:30,0.672,0.973,0.614,1.203,0.863,0.385,0.677,0.636,��,2.0,��
2020/11/10,19:40,0.671,0.972,0.613,1.204,0.862,0.385,0.675,0.638,��,3.3,��
2020/11/10,19:50,0.670,0.974,0.612,1.204,0.862,0.384,0.676,0.636,��,4.9,��
2020/11/10,20:00,0.670,0.971,0.613,1.204,0.864,0.385,0.676,0.636,��,6.8,��
2020/11/10,20:10,0.671,0.973,0.615,1.205,0.863,0.383,0.675,0.636,��,6.3,��
2020/11/10,20:20,0.671,0.973,0.613,1.206,0.863,0.385,0.676,0.634,��,5.1,��
2020/11/10,20:30,0.672,0.973,0.614,1.203,0.860,0.385,0.676,0.636,��,3.7,��
2020/11/10,20:40,0.670,0.973,0.615,1.204,0.863,0.386,0.676,0.635,�쐼,2.5,��
2020/11/10,20:50,0.671,0.971,0.613,1.205,0.864,0.386,0.677,0.636,�쐼,2.5,��
2020/11/10,21:00,0.671,0.973,0.612,1.202,0.864,0.385,0.675,0.635,���쐼,2.6,��
2020/11/10,21:10,0.671,0.972,0.612,1.205,0.861,0.385,0.673,0.635,���쐼,2.9,��
2020/11/10,21:20,0.668,0.971,0.613,1.207,0.862,0.384,0.678,0.635,��,4.0,��
2020/11/10,21:30,0.669,0.973,0.613,1.205,0.862,0.385,0.676,0.636,��,4.6,��
2020/11/10,21:40,0.671,0.972,0.614,1.203,0.863,0.385,0.677,0.636,���쐼,4.7,��
2020/11/10,21:50,0.670,0.970,0.613,1.203,0.864,0.384,0.676,0.635,���쐼,3.5,��
2020/11/10,22:00,0.669,0.973,0.614,1.204,0.864,0.385,0.676,0.636,���쐼,3.7,��
2020/11/10,22:10,0.668,0.972,0.613,1.202,0.863,0.385,0.677,0.634,��,2.6,��
2020/11/10,22:20,0.671,0.970,0.613,1.203,0.862,0.384,0.675,0.635,���쐼,1.9,��
2020/11/10,22:30,0.670,0.972,0.612,1.203,0.862,0.386,0.675,0.635,��,1.5,��
2020/11/10,22:40,0.669,0.970,0.613,1.203,0.863,0.385,0.676,0.634,��,0.8,��
2020/11/10,22:50,0.671,0.967,0.613,1.205,0.861,0.383,0.675,0.635,�쐼,0.9,��
2020/11/10,23:00,0.669,0.971,0.614,1.205,0.860,0.384,0.675,0.635,��,1.2,��
2020/11/10,23:10,0.671,0.969,0.612,1.204,0.863,0.384,0.677,0.635,���k��,1.5,��
2020/11/10,23:20,0.670,0.970,0.614,1.205,0.863,0.384,0.676,0.635,���k��,2.3,��
2020/11/10,23:30,0.670,0.970,0.612,1.204,0.861,0.384,0.676,0.636,���k��,3.2,��
2020/11/10,23:40,0.670,0.971,0.615,1.204,0.863,0.386,0.675,0.636,���k��,2.6,��
2020/11/10,23:50,0.670,0.970,0.612,1.203,0.861,0.386,0.675,0.636,���k��,2.6,��
